Weather History for Spencer, IA

Change the Weather History Date:

Thursday, April 11, 2013

  Actual Average Record
Temperature  
Mean Temperature 34 °F -  
Max Temperature 36 °F 56 °F 81 °F (1977)
Min Temperature 32 °F 33 °F 19 °F (2004)
Degree Days  
Heating Degree Days 31    
Moisture  
Dew Point 32 °F    
Average Humidity 90    
Maximum Humidity 96    
Minimum Humidity 87    
Precipitation  
Precipitation 0.30 in - - ()
Sea Level Pressure  
Sea Level Pressure 29.65 in    
Wind  
Wind Speed 10 mph (NE)    
Max Wind Speed 18 mph    
Max Gust Speed -    
Visibility 3 miles    
Events Rain , Snow    
Averages and records for this station are not official NWS values.
T = Trace of Precipitation, MM = Missing Value Source: NWS Daily Summary

Daily Weather History Graph

Daily Weather History Graph

Search for Another Location

Airport:

Trip Planner

Search our weather history database for the weather conditions in past years. The results will help you decide how hot, cold, wet, or windy it might be!

Date:

Astronomy

Apr. 11, 2013 Rise Set
Actual Time 6:44 AM CDT 7:59 PM CDT
Civil Twilight 6:15 AM CDT 8:28 PM CDT
Nautical Twilight 5:40 AM CDT 9:03 PM CDT
Astronomical Twilight 5:03 AM CDT 9:41 PM CDT
Moon 7:14 AM CDT (4/11) 9:37 PM CDT (4/11)
Length of Visible Light 14h 13m
Length of Day
13h 14m
New Moon, 2% of the Moon is Illuminated
Apr 11
New Moon
Apr 18
First Quarter
Apr 25
Full
May 2
Last Quarter
May 9
New

Hourly Weather History & Observations

Time (CDT) Temp. Windchill Dew Point Humidity Pressure Visibility Wind Dir Wind Speed Gust Speed Precip Events Conditions
12:07 AM 33.8 °F 28.6 °F 32.0 °F 93% 29.78 in 8.0 mi ENE 5.8 mph - 0.00 in Rain Light Rain
12:43 AM 33.8 °F 27.7 °F 32.0 °F 93% 29.77 in 2.5 mi ENE 6.9 mph - 0.02 in Rain Rain
12:51 AM 33.8 °F 28.6 °F 32.0 °F 93% 29.77 in 2.5 mi ENE 5.8 mph - 0.03 in Rain Rain
12:53 AM 33.1 °F 27.7 °F 32.0 °F 96% 29.81 in 2.5 mi ENE 5.8 mph - 0.03 in Rain Light Rain
1:00 AM 33.8 °F 28.6 °F 32.0 °F 93% 29.76 in 5.0 mi NE 5.8 mph - 0.01 in Rain Light Rain
1:22 AM 33.8 °F 27.0 °F 32.0 °F 93% 29.76 in 2.5 mi ENE 8.1 mph - 0.02 in Rain Rain
1:53 AM 33.1 °F 24.9 °F 32.0 °F 96% 29.79 in 1.8 mi ENE 10.4 mph - 0.07 in Snow Light Snow
2:06 AM 33.8 °F 25.3 °F 30.2 °F 87% 29.73 in 0.8 mi NE 11.5 mph - 0.01 in Snow Light Snow
2:26 AM 33.8 °F 25.8 °F 32.0 °F 93% 29.72 in 0.8 mi NE 10.4 mph - 0.03 in Snow Light Snow
2:53 AM 33.1 °F 24.4 °F 32.0 °F 96% 29.75 in 0.8 mi NE 11.5 mph - 0.08 in Snow Light Snow
3:50 AM 33.8 °F 25.3 °F 32.0 °F 93% 29.68 in 1.0 mi NE 11.5 mph - 0.06 in Snow Light Snow
3:51 AM 33.1 °F 24.4 °F 32.0 °F 96% 29.72 in 1.2 mi NE 11.5 mph - 0.06 in Snow Light Snow
4:16 AM 33.8 °F 24.3 °F 30.2 °F 87% 29.68 in 1.5 mi ENE 13.8 mph - 0.01 in Snow Light Snow
4:31 AM 33.8 °F 23.5 °F 30.2 °F 87% 29.67 in 0.8 mi ENE 16.1 mph - 0.01 in Snow Light Snow
4:46 AM 33.8 °F 22.8 °F 30.2 °F 87% 29.64 in 1.0 mi NE 18.4 mph - 0.02 in Snow Light Snow
4:53 AM 33.1 °F 22.2 °F 30.9 °F 92% 29.70 in 1.8 mi ENE 17.3 mph - 0.02 in Snow Light Snow
5:01 AM 33.8 °F 23.2 °F 30.2 °F 87% 29.65 in 2.5 mi ENE 17.3 mph - 0.00 in Snow Light Snow
5:08 AM 33.8 °F 23.2 °F 30.2 °F 87% 29.64 in 3.0 mi ENE 17.3 mph - 0.00 in Snow Light Snow
5:19 AM 33.8 °F 24.3 °F 30.2 °F 87% 29.64 in 2.5 mi ENE 13.8 mph - 0.00 in Snow Light Snow
5:27 AM 33.8 °F 23.9 °F 30.2 °F 87% 29.64 in 5.0 mi ENE 15.0 mph - 0.00 in Snow Light Snow
5:53 AM 33.1 °F 23.4 °F 30.0 °F 89% 29.67 in 10.0 mi ENE 13.8 mph - 0.00 in   Overcast
6:53 AM 32.0 °F 21.6 °F 30.0 °F 92% 29.65 in 10.0 mi ENE 15.0 mph - N/A   Overcast
7:31 AM 32.0 °F 24.2 °F 30.2 °F 93% 29.63 in 1.8 mi ENE 9.2 mph - N/A   Overcast
7:38 AM 32.0 °F 23.0 °F 30.2 °F 93% 29.63 in 1.2 mi East 11.5 mph - N/A   Overcast
7:53 AM 33.1 °F 23.9 °F 30.9 °F 92% 29.66 in 1.2 mi ENE 12.7 mph - N/A   Overcast
8:53 AM 33.1 °F 24.4 °F 32.0 °F 96% 29.66 in 1.0 mi East 11.5 mph - N/A   Overcast
9:50 AM 33.8 °F 25.8 °F 32.0 °F 93% 29.62 in 0.8 mi East 10.4 mph - N/A   Overcast
9:53 AM 34.0 °F 26.0 °F 32.0 °F 92% 29.66 in 0.8 mi East 10.4 mph - N/A   Overcast
10:11 AM 33.8 °F 26.4 °F 32.0 °F 93% 29.62 in 1.0 mi East 9.2 mph - N/A   Overcast
10:53 AM 34.0 °F 27.2 °F 32.0 °F 92% 29.66 in 1.0 mi ENE 8.1 mph - N/A   Overcast
11:35 AM 35.6 °F 28.0 °F 32.0 °F 87% 29.62 in 2.0 mi ENE 10.4 mph - N/A   Overcast
11:44 AM 33.8 °F 26.4 °F 32.0 °F 93% 29.61 in 3.0 mi ENE 9.2 mph - N/A   Overcast
11:53 AM 35.1 °F 27.9 °F 32.0 °F 89% 29.64 in 4.0 mi ENE 9.2 mph - N/A   Overcast
12:20 PM 35.6 °F 29.9 °F 32.0 °F 87% 29.60 in 2.5 mi NE 6.9 mph - 0.00 in Snow Light Snow
12:41 PM 35.6 °F 28.6 °F 32.0 °F 87% 29.59 in 1.8 mi NE 9.2 mph - 0.00 in Snow Light Snow
12:46 PM 35.6 °F 29.2 °F 32.0 °F 87% 29.59 in 2.0 mi NE 8.1 mph - 0.00 in Snow Light Snow
12:53 PM 35.1 °F 27.9 °F 32.0 °F 89% 29.63 in 2.5 mi NE 9.2 mph - 0.00 in Snow Light Snow
1:35 PM 35.6 °F 28.6 °F 32.0 °F 87% 29.58 in 3.0 mi NE 9.2 mph - 0.00 in Snow Light Snow
1:53 PM 35.1 °F 29.3 °F 32.0 °F 89% 29.62 in 4.0 mi NE 6.9 mph - 0.00 in   Overcast
2:53 PM 35.1 °F 27.9 °F 32.0 °F 89% 29.62 in 4.0 mi NE 9.2 mph - 0.00 in Snow Light Snow
3:04 PM 35.6 °F 29.9 °F 32.0 °F 87% 29.58 in 2.0 mi NE 6.9 mph - 0.01 in Snow Light Snow
3:12 PM 35.6 °F 29.2 °F 32.0 °F 87% 29.58 in 1.8 mi NE 8.1 mph - 0.01 in Snow Light Snow
3:24 PM 35.6 °F 29.2 °F 33.8 °F 93% 29.58 in 2.5 mi NE 8.1 mph - 0.01 in   Overcast
3:32 PM 35.6 °F 29.2 °F 33.8 °F 93% 29.58 in 3.0 mi NE 8.1 mph - 0.01 in   Overcast
3:53 PM 36.0 °F 28.0 °F 33.1 °F 89% 29.62 in 4.0 mi NE 11.5 mph - 0.01 in   Overcast
4:22 PM 35.6 °F 28.0 °F 33.8 °F 93% 29.58 in 5.0 mi NNE 10.4 mph - N/A   Overcast
4:53 PM 36.0 °F 28.0 °F 33.1 °F 89% 29.62 in 4.0 mi NNE 11.5 mph - 0.00 in   Overcast
5:29 PM 35.6 °F 28.6 °F 33.8 °F 93% 29.59 in 6.0 mi NNE 9.2 mph - 0.00 in   Overcast
5:53 PM 35.1 °F 26.9 °F 32.0 °F 89% 29.63 in 5.0 mi NNE 11.5 mph - 0.00 in Snow Light Snow
6:09 PM 35.6 °F 28.0 °F 32.0 °F 87% 29.59 in 4.0 mi NNE 10.4 mph - 0.00 in Snow Light Snow
6:22 PM 35.6 °F 28.6 °F 32.0 °F 87% 29.59 in 2.5 mi NNE 9.2 mph - 0.00 in Snow Light Snow
6:34 PM 33.8 °F 25.8 °F 32.0 °F 93% 29.59 in 1.5 mi NNE 10.4 mph - 0.01 in Snow Light Snow
6:53 PM 34.0 °F 26.6 °F 32.0 °F 92% 29.63 in 1.8 mi NNE 9.2 mph - 0.01 in Snow Light Snow
7:18 PM 33.8 °F 26.4 °F 32.0 °F 93% 29.59 in 2.0 mi North 9.2 mph - 0.01 in Snow Light Snow
7:53 PM 34.0 °F 26.0 °F 30.9 °F 89% 29.63 in 2.5 mi North 10.4 mph - 0.01 in Snow Light Snow
8:16 PM 33.8 °F 25.3 °F 30.2 °F 87% 29.59 in 5.0 mi North 11.5 mph - 0.00 in Snow Light Snow
8:53 PM 34.0 °F 25.0 °F 30.9 °F 89% 29.64 in 9.0 mi North 12.7 mph - 0.00 in   Overcast
9:53 PM 34.0 °F 26.0 °F 30.9 °F 89% 29.67 in 8.0 mi North 10.4 mph - 0.00 in Snow Light Snow
10:29 PM 33.8 °F 27.0 °F 30.2 °F 87% 29.63 in 2.0 mi North 8.1 mph - 0.00 in Snow Light Snow
10:34 PM 33.8 °F 26.4 °F 30.2 °F 87% 29.63 in 1.8 mi North 9.2 mph - 0.00 in Snow Light Snow
10:53 PM 33.1 °F 26.1 °F 30.9 °F 92% 29.68 in 1.8 mi NNW 8.1 mph - 0.01 in Snow Light Snow
10:58 PM 33.8 °F 26.4 °F 30.2 °F 87% 29.64 in 2.0 mi NNW 9.2 mph - 0.00 in Snow Light Snow
11:17 PM 33.8 °F 25.8 °F 30.2 °F 87% 29.64 in 4.0 mi NNW 10.4 mph - 0.00 in Snow Light Snow
11:36 PM 33.8 °F 25.8 °F 30.2 °F 87% 29.64 in 3.0 mi North 10.4 mph - 0.00 in Snow Light Snow
11:53 PM 33.1 °F 24.4 °F 30.0 °F 89% 29.68 in 5.0 mi North 11.5 mph - 0.00 in   Overcast